Theta_e
348 351 350 352 351 349 348 348 347 337 335 337 344 345 343 343 342 343 343 344 352 348 348 350 350 349 339 336 347 346 352 346 339 340 345 347 347 348 347 348 347 350 349
349 349 346 350 350 349 349 349 350 341 336 336 348 351 349 348 349 350 349 350 350 350 349 354 354 351 345 344 349 348 349 350 342 346 347 346 347 349 349 350 344 349 349
346 347 346 351 351 352 349 349 348 343 341 337 345 347 348 348 349 348 348 349 352 353 353 352 348 344 345 347 349 348 346 344 343 344 343 346 348 347 349 345 346 346 347
344 345 346 347 346 350 348 349 346 343 342 340 345 347 348 349 351 352 354 353 352 350 345 346 346 345 336 342 340 336 343 346 345 347 347 346 342 328 337 347 348 346 347
345 344 343 339 344 348 346 347 346 341 339 343 344 347 348 348 351 353 353 352 349 348 353 353 353 351 344 341 341 343 343 344 348 348 348 349 343 340 338 332 339 347 338
348 346 345 347 346 350 344 345 345 339 341 343 344 347 347 349 350 353 350 350 347 349 353 351 349 348 343 340 336 340 343 346 349 346 349 347 336 345 349 347 341 341 332
350 346 347 347 345 346 344 344 342 342 343 344 348 350 352 352 352 348 351 344 350 347 353 350 353 347 338 332 332 342 344 345 349 348 346 341 332 337 342 342 333 337 345
348 346 348 346 343 345 342 342 342 342 343 345 342 340 338 338 340 348 351 350 350 348 346 349 350 346 343 340 335 337 341 345 349 348 346 332 333 343 339 344 343 336 337
350 349 348 346 347 347 347 341 342 342 345 345 338 334 337 342 342 345 346 347 353 348 346 348 346 344 343 342 341 340 340 344 346 348 345 332 330 332 338 342 344 341 341
350 349 347 345 345 347 344 338 341 344 343 343 337 337 339 344 346 342 340 339 341 344 346 347 344 340 340 341 342 341 341 346 348 351 341 335 331 330 329 331 334 343 341
351 351 349 348 345 342 344 344 339 341 340 340 339 338 339 345 352 353 351 340 337 337 338 339 339 337 334 336 339 340 341 342 347 349 347 339 337 331 327 330 329 335 344
353 352 351 349 348 349 349 347 349 342 341 332 335 340 340 349 351 352 349 343 338 339 341 346 344 339 338 334 341 344 341 342 346 348 347 343 343 342 336 328 329 331 330
354 354 353 352 352 351 351 347 349 349 343 339 345 345 350 352 351 348 346 344 347 347 347 349 348 348 344 349 349 346 348 349 346 348 346 346 345 344 342 337 329 329 333
354 354 353 354 353 353 353 348 350 352 349 347 345 345 350 349 351 347 346 347 348 348 345 336 349 349 349 349 346 346 345 344 345 347 347 348 347 347 345 342 336 330 329
355 355 354 354 354 355 352 349 351 353 351 348 346 347 347 345 345 349 348 349 348 349 347 347 349 348 348 349 348 347 345 343 344 344 346 347 347 347 348 345 341 336 333
356 355 352 356 353 355 354 354 355 354 349 349 348 348 349 349 346 349 349 351 349 349 348 349 346 341 340 349 350 350 347 343 343 343 344 348 346 345 347 348 343 341 339
356 355 353 353 356 356 354 353 353 350 352 349 349 347 351 350 351 348 347 349 349 348 349 348 347 343 345 347 348 350 349 346 343 341 342 342 348 346 345 346 347 342 342
355 355 355 352 350 353 350 354 351 349 350 349 348 351 351 353 351 352 350 347 348 349 351 350 349 348 348 350 348 348 349 349 344 343 341 340 340 346 347 346 348 347 342
350 352 352 354 353 352 350 354 351 349 351 351 349 349 354 353 351 351 351 350 349 348 349 348 350 349 349 350 348 342 334 340 347 346 346 345 343 340 341 346 347 350 348
351 354 353 355 353 354 354 354 353 354 353 352 351 351 349 350 354 352 352 353 352 352 350 348 347 346 342 345 347 346 338 343 349 348 347 345 342 344 342 344 347 347 348
352 353 355 355 357 356 357 356 354 354 353 352 352 353 345 343 350 353 353 353 352 350 350 349 346 346 344 338 343 345 343 341 342 343 349 349 346 343 344 345 345 345 346
354 355 356 357 356 357 357 356 357 356 355 356 355 352 352 353 354 355 354 353 351 351 351 350 350 347 343 345 344 345 344 345 344 346 347 347 349 349 348 346 344 344 346
357 357 358 359 360 359 358 358 358 357 355 358 355 355 356 356 348 350 350 352 350 351 351 349 346 348 348 348 349 346 345 348 346 343 344 344 343 349 348 348 346 345 345
358 358 359 360 362 361 359 358 359 358 357 355 355 354 355 354 352 351 353 353 352 349 350 348 349 349 350 351 350 348 346 345 345 346 342 340 338 338 343 349 348 346 345
359 359 360 361 363 363 360 358 361 361 359 357 353 351 350 342 338 335 337 339 341 339 341 345 346 347 346 347 347 348 348 347 345 344 344 340 342 344 345 346 345 346 347
358 360 362 363 363 364 363 359 362 362 360 360 353 343 341 341 339 334 337 337 337 339 342 341 341 341 341 342 342 343 347 346 344 341 341 341 342 343 343 343 345 346 348
Wind_Speed
15 17 19 21 23 24 23 23 24 26 27 27 27 26 24 22 20 18 18 18 15 15 16 17 17 16 15 14 13 15 14 16 17 17 17 16 16 14 14 15 15 15 15
21 19 21 22 22 22 21 21 20 24 23 24 23 21 21 21 19 17 16 16 16 16 16 16 14 14 15 15 14 14 13 15 16 18 18 14 15 15 16 16 14 15 14
23 23 23 21 21 20 19 20 19 20 19 19 20 19 19 18 18 17 16 16 16 14 13 13 12 12 13 14 13 13 13 14 14 17 14 13 16 14 12 12 14 13 14
23 23 22 23 22 19 19 19 18 18 17 16 17 18 17 16 16 16 15 13 13 14 15 15 14 13 14 13 12 13 11 12 11 12 9 12 13 12 11 12 14 14 13
23 22 20 23 20 19 19 18 17 17 15 15 17 16 16 15 14 14 15 12 13 14 13 14 13 11 10 11 12 11 7 5 4 5 12 11 13 14 13 12 11 12 9
21 20 22 20 19 18 18 17 17 17 15 14 15 15 15 14 13 14 13 12 13 13 13 12 11 10 10 10 10 8 5 4 10 13 20 15 12 12 12 11 10 10 10
24 22 21 21 21 19 18 17 17 15 13 14 15 13 13 13 12 12 11 12 12 12 11 12 10 9 8 8 8 7 3 5 10 20 17 11 11 12 12 10 10 11 9
23 23 21 20 21 19 16 17 15 13 13 13 13 11 10 10 11 10 11 10 10 9 11 9 8 6 4 6 6 4 1 1 8 14 10 8 11 12 12 11 11 10 10
23 22 21 20 20 18 16 17 15 13 13 11 10 10 10 10 9 9 9 9 8 6 7 6 5 4 2 2 2 1 1 1 3 6 12 11 11 11 11 11 10 10 10
21 19 19 20 20 19 16 16 14 12 12 10 8 7 7 7 7 6 6 5 5 5 4 4 4 4 4 2 2 1 1 3 3 5 16 9 11 10 11 12 11 10 10
22 21 17 18 18 17 15 14 14 12 10 9 7 6 4 3 4 2 1 1 2 2 2 3 6 7 7 5 3 3 6 1 8 1 15 11 10 9 9 11 12 13 13
25 24 18 19 19 17 14 15 14 14 13 10 6 5 3 2 9 6 3 3 2 2 2 4 5 8 10 9 9 9 9 9 8 11 16 12 9 7 7 10 12 14 14
26 24 21 22 22 19 18 16 16 14 13 10 7 6 5 3 9 7 6 9 8 5 5 11 10 8 9 10 11 7 12 13 11 7 19 13 8 6 7 9 12 14 15
28 25 23 21 24 23 21 18 19 18 16 13 10 10 10 7 6 7 5 5 8 6 6 12 13 13 13 9 15 12 14 16 12 11 18 12 9 9 7 10 12 14 16
27 27 24 21 21 22 21 19 16 20 20 17 16 16 12 10 9 7 8 8 10 11 11 9 13 9 8 13 17 15 17 21 18 14 16 15 12 12 9 12 15 16 16
31 28 26 24 16 21 20 12 17 20 18 19 21 17 15 11 10 8 9 8 13 13 10 10 14 16 13 12 15 18 16 22 21 20 16 21 16 14 13 13 17 17 17
32 33 24 24 19 15 13 11 5 10 2 6 6 10 16 13 8 9 12 11 11 14 13 19 18 13 16 15 19 18 21 22 21 21 20 18 20 17 18 18 18 21 21
29 29 24 19 20 14 14 12 8 9 3 5 6 9 16 12 10 11 12 12 13 16 17 16 20 17 18 17 18 17 24 23 24 23 21 22 23 21 21 21 21 22 23
27 26 22 22 21 17 14 11 10 9 7 8 10 8 4 14 11 13 12 13 13 19 22 16 16 18 18 19 16 17 32 31 28 26 26 27 29 30 30 26 25 24 24
28 24 22 19 22 18 16 12 12 10 10 10 8 9 11 8 7 9 11 13 17 19 21 21 25 23 23 18 15 17 17 34 22 24 29 28 34 29 34 29 27 27 26
28 26 23 21 19 20 18 15 13 14 13 14 12 11 12 8 12 16 19 19 21 21 22 23 25 23 27 18 19 15 20 32 28 26 30 32 31 33 30 33 32 33 33
30 27 24 22 22 20 18 15 15 13 11 8 12 10 11 7 9 16 19 18 18 17 18 20 23 23 22 23 9 7 4 14 18 20 29 32 33 33 35 37 36 36 37
32 30 28 25 23 21 20 18 16 14 11 10 12 14 12 10 10 14 16 19 18 16 18 18 19 19 21 23 18 10 2 3 9 20 21 26 21 20 29 38 38 38 38
33 33 30 28 25 23 21 19 16 15 13 11 12 14 13 9 10 14 15 17 17 16 16 16 15 16 18 20 22 19 24 21 5 9 21 23 25 18 30 33 33 41 43
33 35 33 30 27 25 24 21 19 17 14 4 9 8 7 3 3 9 6 5 6 10 11 13 13 13 15 18 21 18 17 22 25 13 10 13 13 19 25 17 14 48 48
32 34 34 33 30 26 25 23 21 15 15 9 6 4 3 6 8 8 10 11 11 9 8 12 15 17 19 20 22 24 22 14 8 12 8 16 20 34 27 19 22 19 28
Wind_Direction
128 119 116 109 112 108 107 107 106 107 98 91 87 88 91 93 98 102 100 99 95 102 105 106 107 102 95 100 98 105 103 105 105 105 101 98 99 99 108 100 102 101 101
132 124 125 117 112 116 114 112 110 111 105 92 91 90 92 92 94 100 102 101 100 101 105 103 102 103 105 103 101 101 102 104 108 112 106 100 102 103 99 123 111 105 103
134 130 124 119 116 116 118 116 121 116 112 94 89 93 96 99 98 99 101 102 103 105 106 106 108 116 118 113 109 107 109 106 113 116 100 107 111 108 100 103 107 109 107
136 133 132 129 121 119 120 120 122 122 115 99 93 98 100 97 101 103 102 102 105 109 110 107 107 110 119 116 117 116 123 128 131 140 114 109 112 106 110 116 111 111 114
142 135 137 131 125 119 119 121 122 121 118 108 104 103 101 101 102 102 106 104 109 114 115 113 111 115 119 121 127 128 128 121 116 160 157 150 128 114 106 114 124 123 114
140 142 137 133 131 123 120 122 126 126 122 114 112 111 107 104 106 109 109 113 115 120 114 118 117 114 116 130 139 137 121 87 78 139 146 158 137 130 130 129 124 131 126
148 147 141 138 139 132 127 127 128 125 125 119 116 114 112 110 105 108 105 112 117 125 125 124 122 124 123 129 153 143 112 84 96 145 151 150 142 140 141 138 132 139 134
142 146 142 146 148 141 138 134 130 129 128 127 124 120 117 112 107 109 113 115 115 127 138 137 138 137 134 134 146 171 221 355 74 171 163 154 153 152 147 150 147 146 151
138 143 150 150 148 147 146 147 139 137 136 135 133 127 113 107 110 116 117 123 133 135 150 161 162 173 172 180 175 167 276 281 56 191 169 154 159 160 161 163 163 162 163
139 146 149 154 156 154 154 156 151 147 151 153 150 139 124 115 100 112 104 118 137 155 176 203 220 225 233 251 241 254 178 239 253 202 191 178 162 165 170 173 177 179 175
141 147 154 162 164 167 163 165 171 170 168 167 167 162 158 157 146 141 149 36 102 136 173 238 254 256 255 255 248 243 260 125 140 209 206 181 169 168 179 184 185 188 192
148 157 158 162 165 169 177 179 182 188 195 194 197 201 226 255 213 246 253 305 284 231 240 280 276 265 262 248 267 263 261 265 261 273 204 187 177 177 192 197 195 196 200
156 159 169 168 170 172 180 179 181 192 201 205 201 233 270 296 204 230 287 279 281 275 277 293 280 275 269 285 309 261 275 279 300 264 195 188 192 202 208 213 206 205 206
160 167 168 177 179 182 193 192 185 190 190 192 198 208 222 230 212 248 281 279 284 228 270 272 267 289 282 264 277 257 264 269 284 250 209 197 205 211 224 227 218 215 215
163 169 170 168 176 191 196 190 193 203 206 211 208 212 219 223 225 262 264 268 269 241 254 252 235 257 259 277 293 289 266 264 272 276 251 233 227 225 235 238 228 224 222
168 169 168 171 179 198 203 190 208 215 212 221 224 223 233 221 227 249 262 275 268 277 281 238 282 295 266 264 278 282 283 269 272 272 277 247 250 240 251 248 237 232 231
157 165 169 175 174 183 182 180 184 170 224 235 231 246 242 222 214 234 252 268 278 292 287 260 276 282 263 273 271 273 273 274 265 268 268 272 244 252 262 254 244 237 239
155 165 167 173 193 196 201 196 210 198 272 278 265 345 243 227 231 233 265 282 278 290 300 277 263 265 267 264 275 279 286 273 264 263 264 266 267 256 262 262 254 243 240
170 172 176 185 188 192 194 197 208 217 255 272 275 320 13 250 238 269 270 283 280 283 287 298 282 279 280 277 273 292 307 301 269 258 261 263 261 257 258 259 254 247 241
171 173 180 186 188 189 192 205 205 221 240 246 254 260 254 261 264 271 275 272 274 279 287 288 288 287 299 298 299 277 262 269 265 261 263 262 260 259 252 250 249 252 249
175 180 183 179 180 185 190 194 209 218 228 242 247 256 257 294 278 279 278 280 289 291 291 289 297 285 288 296 304 277 285 286 285 270 262 269 261 258 257 248 250 254 255
179 185 189 193 195 197 202 209 210 223 235 262 247 257 250 254 256 264 278 287 297 300 296 294 295 293 283 293 277 291 309 309 295 291 280 260 261 262 261 254 250 249 250
180 186 192 196 201 202 202 212 217 232 240 242 234 238 237 230 272 269 283 285 295 298 299 299 300 297 287 297 292 244 288 236 297 287 285 282 293 272 271 263 250 251 246
184 190 195 198 204 206 200 212 214 214 225 237 243 222 214 236 295 290 286 280 286 301 299 307 304 299 292 286 296 289 258 250 254 292 276 280 271 273 282 278 267 254 250
184 190 197 198 201 205 204 212 213 219 231 210 148 141 184 253 322 337 342 330 318 311 318 316 317 314 307 300 300 296 289 267 253 249 283 289 275 266 264 282 307 265 249
185 188 194 197 199 203 205 204 208 210 222 219 232 264 265 266 287 310 320 329 333 336 331 319 316 313 313 310 309 304 292 279 255 234 257 272 279 283 276 266 255 269 265